Regional Weather Roundup
Issued by NWS

Home | Current Version | Previous Version | Graphics & Text | Print | Product List | Glossary On
Versions: 1 2 3 4 5 6 7 8 9 10 11 12 13 14 15 16 17 18 19 20 21 22 23 24 25 26 27 28 29 30 31 32 33 34 35 36 37 38 39 40 41 42 43 44 45 46 47 48 49 50
000
ASUS45 KABQ 302110
RWRNM
WEATHER ROUNDUP FOR NEW MEXICO
NATIONAL WEATHER SERVICE ALBUQUERQUE NM
300 PM MDT WED JUL 30 2014

NOTE: "FAIR" MEANS FEW OR NO CLOUDS BELOW 12,000 FEET AGL WITH NO
       SIGNIFICANT WEATHER OR OBSTRUCTIONS TO VISION.

      THIS PRODUCT IS RELEASED AS TWO VERSIONS.  ONE VERSION NEAR
      THE TOP OF THE HOUR CONTAINING PRELIMINARY DATA FROM ALBUQUERQUE
      AND OTHER STATIONS.  A FINAL VERSION WITH ADDITIONAL DATA IS
      ISSUED ABOUT 10 MINUTES AFTER THE HOUR.

NMZ501-503-504-510>518-302200-
NORTHWEST PLATEAU/NORTHCENTRAL MOUNTAINS

CITY           SKY/WX    TMP DP  RH WIND       PRES   REMARKS
FARMINGTON     MOSUNNY   88  47  24 NW10G25   30.16F
LOS ALAMOS     LGT RAIN  70  57  63 S5        30.32S
SANTA FE       PTSUNNY   78  52  40 W8        30.25S
TAOS           PTSUNNY   75  48  38 W8        30.28F
ANGEL FIRE     CLOUDY    72  47  41 E6        30.38F

$$
NMZ402-403-502-505>509-302200-
WESTCENTRAL MOUNTAINS/SOUTHWEST MOUNTAINS

CITY           SKY/WX    TMP DP  RH WIND       PRES   REMARKS
GALLUP         CLOUDY    85  46  25 W12       30.25S
SILVER CITY    MOSUNNY   91  46  21 NW16G22   30.18F

$$
NMZ407-409-411-412-302200-
SOUTHERN DESERTS

CITY           SKY/WX    TMP DP  RH WIND       PRES   REMARKS
LORDSBURG      FAIR      95  50  21 W7        30.09F
DEMING         MOSUNNY   98  51  20 W15       30.06F HX  95
LAS CRUCES     SUNNY     94  47  20 S3        30.08F
HOLLOMAN AFB   MOSUNNY   97  50  20 W13G18    30.03F
ALAMOGORDO     MOSUNNY   95  50  21 N8G20     30.06S
T OR C         MOSUNNY   92  50  23 SW3       30.09F

$$
NMZ519>523-302200-
CENTRAL VALLEYS/CENTRAL HIGHLANDS

CITY           SKY/WX    TMP DP  RH WIND       PRES   REMARKS
ALBUQUERQUE    PTSUNNY   85  53  33 W6        30.18F
DOUBLE EAGLE   PTSUNNY   84  54  34 VRB3      30.21F
MORIARTY ARPT  FAIR      82  48  30 N9        30.24F
CLINES CORNERS MOSUNNY   77  58  51 SE12      30.29F
BELEN          FAIR      87  51  29 NE7       30.16F
SOCORRO        PTSUNNY   90  49  24 NW3       30.13F

$$
NMZ524>526-539-540-302200-
SOUTHCENTRAL MOUNTAINS

CITY           SKY/WX    TMP DP  RH WIND       PRES   REMARKS
RUIDOSO        MOSUNNY   79  54  41 NE9G22    30.30R

$$
NMZ527>531-302200-
NORTHEAST HIGHLANDS/NORTHEAST PLAINS

CITY           SKY/WX    TMP DP  RH WIND       PRES   REMARKS
LAS VEGAS      PTSUNNY   74  56  53 E8        30.31R
RATON          MOSUNNY   71  55  56 NE18G26   30.29R
CLAYTON        PTSUNNY   68  58  70 N23       30.24S

$$
NMZ532>537-302200-
EASTCENTRAL PLAINS

CITY           SKY/WX    TMP DP  RH WIND       PRES   REMARKS
TUCUMCARI      PTSUNNY   87  57  35 NE22G31   30.12S
CANNON AFB     SUNNY     85  62  46 NE18G25   30.13S
CLOVIS AIRPORT NOT AVBL

$$
NMZ028-029-538-302200-
SOUTHEAST PLAINS

CITY           SKY/WX    TMP DP  RH WIND       PRES   REMARKS
ROSWELL        SUNNY     92  64  39 N18       30.02S
ARTESIA        MOSUNNY   93  63  36 NE15G22   30.01S
CARLSBAD       MOSUNNY  103  52  18 N14G21    29.95S HX 100
HOBBS          MOSUNNY   99  50  19 N12G21    30.00F HX  95


$$



USA.gov is the U.S. government's official web portal to all federal, state and local government web resources and services.